Tracking 30696 objects as of 16-Jun-2025
HD Live streaming from Space Station
objects crossing your sky now

STARLINK-6322

Track STARLINK-6322 now!
10-day predictions
STARLINK-6322 is classified as:


NORAD ID: 57337
Int'l Code: 2023-099K
Perigee: 565.0 km
Apogee: 567.4 km
Inclination: 43.0 °
Period: 95.8 minutes
Semi major axis: 6937 km
RCS: Unknown
Launch date: July 16, 2023
Source: United States (US)
Launch site: AIR FORCE EASTERN TEST RANGE (AFETR)
Your satellite tracking list
Your tracking list is empty




NASA's NSSDC Master Catalog

Two Line Element Set (TLE):
1 57337U 23099K   25166.57136148 -.00000910  00000-0 -52295-4 0  9992
2 57337  43.0049 260.5384 0001758 265.0476  95.0165 15.02532197105935
Source of the keplerian elements: AFSPC